Regional Weather Roundup
Issued by NWS Grand Forks, ND

Home | Current Version | Previous Version | Graphics & Text | Print | Product List | Glossary On
Versions: 1 2 3 4 5 6 7 8 9 10 11 12 13 14 15 16 17 18 19 20 21 22 23 24 25 26 27 28 29 30 31 32 33 34 35 36 37 38 39 40 41 42 43 44 45 46 47 48 49 50
493
ASUS43 KFGF 211431
RWRFGF
PRAIRIE TO PINES  WEATHER ROUNDUP
NATIONAL WEATHER SERVICE EASTERN NORTH DAKOTA/GRAND FORKS ND
900 AM CDT THU SEP 21 2017

 **SATELLITE DATA USED TO AUGMENT SKY COVER AT AUTOMATED STATIONS**
 *****  WEATHER ACROSS EASTERN NORTH DAKOTA  *****

CITY           SKY/WX    TMP DP  RH WIND       PRES   REMARKS
GRAND FORKS    PTSUNNY   61  50  67 S21G29    29.81R
GRAND FRKS AFB CLOUDY    59  47  66 S16G25    29.81R
DEVILS LAKE    NOT AVBL
FARGO          FAIR      58  49  72 S18G30    29.85S
WAHPETON ARPT  FAIR      57  46  67 SE13G18   29.87F
$$

 ***** WEATHER ACROSS CENTRAL AND WESTERN NORTH DAKOTA  *****

CITY           SKY/WX    TMP DP  RH WIND       PRES   REMARKS
BISMARCK       FAIR      60  46  59 SE18      29.70R
MINOT          LGT RAIN  56  45  66 NW8       29.66S
JAMESTOWN      FAIR      57  48  72 S14       29.78S
MINOT AFB      FAIR      53  44  72 CALM      29.66R
GARRISON         N/A     56  45  66 SE7       29.67R
WILLISTON      CLOUDY    48  42  80 SW5       29.70R
DICKINSON      FAIR      54  42  64 NW8       29.66R
HETTINGER      FAIR      55  40  56 SE3       29.67R
$$

 *****  OTHER AIRPORT OBSERVATIONS IN OUR AREA  *****

CITY           SKY/WX    TMP DP  RH WIND       PRES   REMARKS
WALHALLA       FAIR     N/A N/A N/A S12       29.76F
GRAFTON AIRPOR NOT AVBL
VALLEY CITY AR NOT AVBL
CANDO          NOT AVBL
CAVALIER APRT  FAIR      54  48  82 S8        29.78S
GWINNER        SUNNY     61  48  63 S10       29.82S
SHEYENNE NWR     N/A     60  49  67 S14       29.95
ROLLA          CLOUDY    54  43  66 S6G13     29.74R
 ***** THE ABOVE OBSERVATIONS ARE NON NWS ARE NOT QUALITY
       CONTROLLED AND MAY MIS-REPORT RAIN FOR SNOW...
$$

  *****  WEATHER ACROSS NORTHERN MINNESOTA  *****

CITY           SKY/WX    TMP DP  RH WIND       PRES   REMARKS
FLAG ISLAND    FAIR      61  50  67 S20G26    29.87R
WARROAD        FAIR      61  48  63 S16       29.87S
ROSEAU         FAIR      59  48  67 S10       29.87R
HALLOCK        CLOUDY    59  48  67 S18       29.81S
THF RVR FALLS  FAIR      61  46  57 S13       29.89R
BAUDETTE       FAIR      55  46  71 S12G20    29.92R
WASKISH        FAIR      61  48  63 SE5       29.93S
CROOKSTON      FAIR      61  48  63 S16       29.86R
STEPHEN NDAWN    N/A     57  48  72 S15         N/A
GREENBUSH NDAW   N/A     57  46  67 S9          N/A
$$
  *****  WEATHER ACROSS CENTRAL AND WEST MINNESOTA  *****

CITY           SKY/WX    TMP DP  RH WIND       PRES   REMARKS
FOSSTON        FAIR      59  46  63 SE9       29.89S
BEMIDJI        FAIR      57  46  66 SE8       29.93S
PARK RAPIDS    FAIR      56  47  71 SE9       29.94S
ELBOW LAKE     FAIR      59  49  70 E14       29.90F
WADENA         FAIR      57  48  72 SE10      29.92F
DETROIT LAKES  FAIR      59  46  63 SE13      29.90F
MOORHEAD       FAIR      61  48  63 S15       29.86F
FERGUS FALLS   FAIR      61  48  63 SE13      29.89F
MORRIS MN      FAIR      57  50  77 SE13      29.89S
STAPLES        NOT AVBL
$$
  *****  WEATHER ELSEWHERE ACROSS MINNESOTA  *****

CITY           SKY/WX    TMP DP  RH WIND       PRES   REMARKS
DULUTH         FAIR      56  54  93 SE7       30.04R
INTRNTL FALLS  FAIR      54  46  74 SE8       29.97F
ELY            FAIR      55  46  71 SE8       30.04S
CLOQUET        FAIR      55  46  71 E5        30.03S
WHEATON        FAIR      59  48  67 SE14G20   29.89F
BRAINERD       FAIR      56  48  74 SE6       29.97S
HIBBING        FAIR      49  46  90 SE6       30.02S
ALEXANDRIA     FAIR      58  47  66 SE15G22   29.93F
SAINT CLOUD    FAIR      56  50  80 E7        29.96F
MINNEAPOLIS    FAIR      62  53  72 E15       29.98F
$$

  *****  WEATHER ACROSS SOUTH DAKOTA  *****

CITY           SKY/WX    TMP DP  RH WIND       PRES   REMARKS
SIOUX FALLS    FAIR      62  54  74 E15       29.87F
BROOKINGS      NOT AVBL
WATERTOWN      FAIR      57  48  72 SE12      29.86F
HURON          FAIR      57  49  74 SE10      29.81F
SISSETON         N/A     55  49  80 SE15      29.86S
ABERDEEN       FAIR      59  48  67 S6        29.80F
MITCHELL       FAIR      58  50  75 SE16      29.83F
PIERRE         FAIR      60  47  61 SE15      29.73F
MOBRIDGE       FAIR      64  49  57 S18G26    29.69S
RAPID CITY     SUNNY     57  39  51 S12       29.66S
$$

  *****  SOME WEATHER IN NEARBY STATES *****

CITY           SKY/WX    TMP DP  RH WIND       PRES   REMARKS
GLASGOW MT     FAIR      45  37  73 NW6       29.72R
GREAT FALLS MT FAIR      36  29  75 E6        29.79R
CHEYENNE WY    FAIR      55  34  45 CALM      29.82S
SCOTTSBLUFF NE FAIR      51  41  68 E12       29.75S
OMAHA NE       FAIR      72  64  76 SE12      29.86S
DES MOINES IA  PTSUNNY   72  69  90 S7        29.91R
DAVENPORT IA   LGT RAIN  72  60  66 SW18G28   30.02R
CHICAGO IL     PTSUNNY   79  68  69 S5        30.01R
EAU CLAIRE WI  FAIR      59  55  87 N5        30.01F
LA CROSSE WI   CLOUDY    63  59  88 CALM      30.00
$$

  *****  SOME NATIONAL WEATHER *****

CITY           SKY/WX    TMP DP  RH WIND       PRES   REMARKS
LA GUARDIA NY  PTSUNNY   75  65  70 N14       30.01R
RALEIGH NC     FAIR      77  65  66 N7        30.07R
ATLANTA GA     FAIR      80  67  64 NE3       30.10R
NEW ORLEANS LA FAIR      82  74  76 NE6       30.04R
OKLAHOMA CITY  PTSUNNY   78  71  79 S18       29.89S
ALBUQUERQUE NM FAIR      63  37  38 CALM      30.06R
SALT LAKE CITY MOCLDY    52  44  74 N6        29.75R
LOS ANGELES CA LGT RAIN  66  63  90 SW7       29.85R
BOISE ID       CLOUDY    47  45  93 CALM      29.82R
SEATTLE WA     CLOUDY    50  49  96 S5        29.90S
$$

*** WEATHER ACROSS MANITOBA...SASKATCHEWAN AND ONTARIO ***
                ***ONTARIO***

CITY           SKY/WX    TMP DP  RH WIND       PRES   REMARKS
GERALDTON      MOSUNNY   54  52  94 SW6       30.08R
THUNDER BAY    MOSUNNY   50  50 100 S3        30.08R
SIOUX LOOKOUT  MOSUNNY   57  46  67 SW6       29.97R
TORONTO        MOSUNNY   73  64  73 VRB3      30.13R
BIG TROUT LK   MOSUNNY   54  46  76 SW13G18   29.81F
PICKLE LAKE    MOSUNNY   54  46  76 S15G22    29.94S
DRYDEN         SUNNY     55  46  71 S10       29.95F
KENORA         PTSUNNY   59  45  58 S12       29.89F
$$
                *** MANITOBA***

CITY           SKY/WX    TMP DP  RH WIND       PRES   REMARKS
BRANDON        CLOUDY    46  43  87 CALM      29.68R
DAUPHIN        MOSUNNY   54  43  66 W5        29.64R
ISLAND LAKE    MOSUNNY   54  43  66 S12G17    29.70R
PILOT MOUND      N/A     55  45  67 S14         N/A
THE PAS        MOSUNNY   43  37  81 S7        29.56R
THOMPSON       PTSUNNY   45  43  93 VRB2      29.54R
WINNIPEG       CLOUDY    57  46  67 S21G33    29.77R
LYNN LAKE      LGT RAIN  43  41  93 NW7       29.51R FOG
CHURCHILL      MOSUNNY   45  43  93 E10       29.55R
GILLAM         MOSUNNY   48  45  87 S10       29.59R
$$
                ***SASKATCHEWAN***

CITY           SKY/WX    TMP DP  RH WIND       PRES   REMARKS
ESTEVAN        PTSUNNY   48  41  76 W3        29.67R
KINDERSLEY     CLOUDY    41  37  87 W21       29.66R
LLOYDMINSTER   LGT RAIN  39  37  93 N9        29.62R FOG
PRINCE ALBERT  PTCLDY    39  36  87 W9        29.60R
REGINA         PTSUNNY   37  32  81 W5        29.68R
YORKTON        MOSUNNY   43  34  70 SW7       29.63R
N. BATTLEFORD  CLOUDY    43  41  93 SW9       29.62R
LA RONGE       CLOUDY    43  41  93 NW6       29.57R FOG
SASKATOON      PTCLDY    36  34  93 SW9       29.64R
SWIFT CURRENT  CLOUDY    36  32  87 W14       29.70R
$$
NOTE: THESE ARE AUTOMATED STATIONS WITH LIMITED QUALITY CONTROL
      "FAIR" INDICATES FEW OR NO CLOUDS BELOW 12,000 FEET WITH NO
      SIGNIFICANT WEATHER AND/OR OBSTRUCTIONS TO VISIBILITY.
      SKY/WX - SKY CONDITION AND SIGNIFICANT WEATHER.
      TMP - AIR TEMPERATURE.    DP   - DEWPOINT TEMPERATURE.
      RH  - RELATIVE HUMIDITY.  PRES - PRESSURE.
      HX  - HEAT INDEX.         WCI  - WIND CHILL INDEX.
$




USA.gov is the U.S. government's official web portal to all federal, state and local government web resources and services.